sat.trackr.live / text

‹ back to catalog

STARLINK-5692

NORAD 55483 · 2023-015AL

PAYLOAD ACTIVE UNKNOWN

§ Identity

Operator
Country
US
Launch date
2023-02-02
Launch site
AFETR
Launch vehicle
Mass (kg)
RCS (m²)

Purposes: comms

External: N2YO · Heavens-Above · Gunter

§ Orbital elements

Epoch: 2026-05-25T00:55:31.768032Z

Period
94.27 min
Inclination
43.0011°
Eccentricity
0.0001311
Mean motion
15.27577584 rev/d
Perigee alt
482.2 km
Apogee alt
484.0 km
Semi-major
6,861.2 km
B*
3.6201e-6
RAAN
268.4031°
Arg perigee
271.6888°
Mean anomaly
88.3814°
Rev number
18,227

§ Raw data

STARLINK-56921 55483U 23015AL  26145.03856213 -.00000162  00000+0  36201-5 0  99982 55483  43.0011 268.4031 0001311 271.6888  88.3814 15.27577584182279

JSON: /api/v1/satellites/55483 · /tle

For live sub-satellite position, see the globe view (requires WebGL).

§ Visibility from observer

Set your observer location to see the next 7 days of passes ≥ 10°. The values pass through the URL so the page stays shareable.

No JS? Fill the form by hand. The geolocation button needs JavaScript.